Regional Weather Roundup
Issued by NWS Sioux Falls, SD

Home | Current Version | Previous Version | Text Only | Print | Product List | Glossary Off
Versions: 1 2 3 4 5 6 7 8 9 10 11 12 13 14 15 16 17 18 19 20 21 22 23 24 25 26 27 28 29 30 31 32 33 34 35 36 37 38 39 40 41 42 43 44 45 46 47 48 49 50

000
ASUS43 KFSD 251810
RWRFSD

WEATHER ROUNDUP FOR SE SOUTH DAKOTA/SW MINNESOTA/NW IOWA
NATIONAL WEATHER SERVICE SIOUX FALLS SD
1200 PM CST SUN FEB 25 2018

NOTE: "FAIR" INDICATES FEW OR NO CLOUDS BELOW 12,000 FEET WITH NO
SIGNIFICANT WEATHER AND OR OBSTRUCTIONS TO VISIBILITY.


SDZ038>040-050-052>070-251900-
SOUTHEAST SOUTH DAKOTA

CITY           SKY/WX    TMP DP  RH WIND       PRES   REMARKS
BROOKINGS      FLURRIES  24  17  74 W12       29.81R WCI  13
CHAMBERLAIN    MOSUNNY   30  19  63 SW12      29.87R WCI  20
6HR MIN TEMP:  19; 6HR MAX TEMP:  30;

HURON          SUNNY     30  21  69 W9        29.83R WCI  22
6HR MIN TEMP:  17; 6HR MAX TEMP:  30;

MADISON        FAIR      21  19  93 W18       29.82R WCI   6
MITCHELL       SUNNY     27  17  66 SW10      29.88R WCI  17
6HR MIN TEMP:  16; 6HR MAX TEMP:  27;

SIOUX FALLS    MOSUNNY   26  17  68 W9        29.86S WCI  17
6HR MIN TEMP:  11; 6HR MAX TEMP:  26;

WINNER         FAIR      28  16  60 SW13      29.88R WCI  17
YANKTON        SUNNY     33  17  51 W17       29.92R WCI  22
$$

MNZ071-072-080-081-089-090-097-098-251900-
SOUTHWEST MINNESOTA

CITY           SKY/WX    TMP DP  RH WIND       PRES   REMARKS
FAIRMONT       SUNNY     25  17  72 W18       29.85R WCI  11
JACKSON        SUNNY     23  16  74 W20G29    29.83R WCI   8
LUVERNE        SUNNY     27  19  74 W20       29.86R WCI  13
MARSHALL       SUNNY     29  22  75 W23       29.78S WCI  15
6HR MIN TEMP:  12; 6HR MAX TEMP:  29; 6HR PCP: TRACE;

MONTEVIDEO     SUNNY     30  19  64 W13       29.76R WCI  20
PIPESTONE      MOSUNNY   25  19  80 W17       29.81R WCI  11
REDWOOD FALLS  MOSUNNY   24  18  77 W14       29.79R WCI  12
TRACY          SUNNY     27  22  84 W18G25    29.78S WCI  13
WORTHINGTON    CLOUDY    24  18  77 W20       29.83R WCI  10
$$

IAZ001>003-012>014-020>022-031-032-NEZ013-014-SDZ071-251900-
NORTHWEST IOWA

CITY           SKY/WX    TMP DP  RH WIND       PRES   REMARKS
CHEROKEE       SUNNY     30  19  64 W13       29.91R WCI  20
DENISON        SUNNY     32  19  59 W15       29.96R WCI  22
ESTHERVILLE    SUNNY     23  16  74 W24       29.84R WCI   7
LE MARS        SUNNY     32  19  59 W9        29.92R WCI  24
ORANGE CITY    SUNNY     28  21  74 W16       29.89R WCI  17
SHELDON        SUNNY     25  18  74 W15       29.86R WCI  12
SIOUX CITY     SUNNY     31  18  58 W10       29.94R WCI  22
6HR MIN TEMP:  18; 6HR MAX TEMP:  31;

SPENCER        SUNNY     26  16  65 W17       29.88R WCI  13
6HR MIN TEMP:  13; 6HR MAX TEMP:  26;

STORM LAKE     SUNNY     28  19  69 W24       29.88R WCI  14
$$

ABBREVIATIONS USED IN REMARKS
   TC - TEMPERATURE IN CELSIUS
  WCI - WIND CHILL INDEX
   HX - HEAT INDEX
  VSB - VISIBILITY





USA.gov is the U.S. government's official web portal to all federal, state and local government web resources and services.